sat.trackr.live / text

‹ back to catalog

STARLINK-3734

NORAD 52112 · 2022-029AA

PAYLOAD ACTIVE UNKNOWN

§ Identity

Operator
Country
US
Launch date
2022-03-19
Launch site
AFETR
Launch vehicle
Mass (kg)
RCS (m²)

Purposes: comms

External: N2YO · Heavens-Above · Gunter

§ Orbital elements

Epoch: 2026-05-25T06:00:02.000160Z

Period
93.60 min
Inclination
53.2174°
Eccentricity
0.0001169
Mean motion
15.38490108 rev/d
Perigee alt
449.8 km
Apogee alt
451.4 km
Semi-major
6,828.7 km
B*
3.4148e-3
RAAN
88.6734°
Arg perigee
77.4445°
Mean anomaly
99.0587°
Rev number
574

§ Raw data

STARLINK-37341 52112U 22029AA  26145.25002315  .00133560  00000+0  34148-2 0  99912 52112  53.2174  88.6734 0001169  77.4445  99.0587 15.38490108  5742

JSON: /api/v1/satellites/52112 · /tle

For live sub-satellite position, see the globe view (requires WebGL).

§ Visibility from observer

Set your observer location to see the next 7 days of passes ≥ 10°. The values pass through the URL so the page stays shareable.

No JS? Fill the form by hand. The geolocation button needs JavaScript.